South Lake Tahoe, CA

2:10 AM PST on December 16, 2017 (GMT -0800)
Lake Tahoe

Weather History for KTVL - March, 2014

Change the Weather History Date:

Thursday, March 27, 2014

  Actual Average Record
Temperature  
Mean Temperature 37 °F 37 °F  
Max Temperature 43 °F 50 °F 70 °F (1988)
Min Temperature 31 °F 24 °F 3 °F (1975)
Degree Days  
Heating Degree Days 28 28  
Month to date heating degree days 664 805  
Since 1 July heating degree days 5279 6042  
Cooling Degree Days 0 0  
Month to date cooling degree days 0 0  
Year to date cooling degree days 0 0  
Moisture  
Dew Point 24 °F    
Average Humidity 59    
Maximum Humidity 72    
Minimum Humidity 45    
Precipitation  
Precipitation 0.01 in - 1.75 in (1985)
Month to date precipitation 1.07  
Year to date precipitation 9.31  
Sea Level Pressure  
Sea Level Pressure 29.93 in    
Wind  
Wind Speed 11 mph (South)    
Max Wind Speed 22 mph    
Max Gust Speed 31 mph    
Visibility 8 miles    
Events Snow    
T = Trace of Precipitation, MM = Missing Value Source: NWS Daily Summary

Daily Weather History Graph

Daily Weather History Graph

Search for Another Location

Airport or City:

Trip Planner

Search our weather history database for the weather conditions in past years. The results will help you decide how hot, cold, wet, or windy it might be!

Date:

Astronomy

Mar. 27, 2014 Rise Set
Actual Time 6:52 AM PDT 7:18 PM PDT
Civil Twilight 6:25 AM PDT 7:45 PM PDT
Nautical Twilight 5:54 AM PDT 8:17 PM PDT
Astronomical Twilight 5:22 AM PDT 8:49 PM PDT
Moon 4:45 AM PDT (3/27) 4:13 PM PDT (3/27)
Length of Visible Light 13h 20m
Length of Day
12h 26m
Waning Crescent, 12% of the Moon is Illuminated
Mar 27
Waning Crescent
Mar 30
New
Apr 7
First Quarter
Apr 15
Full
Apr 22
Last Quarter

Hourly Weather History & Observations

Time (PDT) Temp. Windchill Dew Point Humidity Pressure Visibility Wind Dir Wind Speed Gust Speed Precip Events Conditions
12:28 AM 32.0 °F 23.6 °F 23.0 °F 69% 29.83 in 3.0 mi South 10.4 mph 20.7 mph 0.00 in Snow Light Snow
12:35 AM 30.9 °F 21.7 °F 24.1 °F 76% 29.83 in 2.0 mi South 11.5 mph - 0.00 in Snow Light Snow
12:40 AM 32.0 °F 24.8 °F 24.1 °F 73% 29.83 in 4.0 mi South 8.1 mph - 0.00 in Snow Light Snow
12:48 AM 32.0 °F 23.0 °F 24.8 °F 75% 29.83 in 8.0 mi South 11.5 mph 24.2 mph 0.00 in   Overcast
12:53 AM 32.0 °F 23.6 °F 24.1 °F 73% 29.81 in 8.0 mi South 10.4 mph 24.2 mph 0.00 in   Overcast
1:53 AM 33.1 °F 23.9 °F 24.1 °F 70% 29.81 in 10.0 mi South 12.7 mph 17.3 mph N/A   Overcast
2:53 AM 33.1 °F 25.5 °F 21.0 °F 61% 29.83 in 10.0 mi SSW 9.2 mph 28.8 mph N/A   Overcast
3:24 AM 32.0 °F 23.6 °F 21.9 °F 66% 29.86 in 10.0 mi South 10.4 mph - N/A   Overcast
3:49 AM 32.0 °F 22.1 °F 21.2 °F 64% 29.86 in 10.0 mi South 13.8 mph 25.3 mph N/A   Overcast
3:53 AM 32.0 °F 23.6 °F 21.0 °F 64% 29.85 in 10.0 mi SE 10.4 mph 21.9 mph N/A   Overcast
4:53 AM 30.9 °F 22.2 °F 21.0 °F 67% 29.85 in 10.0 mi SE 10.4 mph - N/A   Overcast
5:00 AM 30.9 °F 21.2 °F 21.9 °F 69% 29.86 in 10.0 mi SSE 12.7 mph 20.7 mph N/A   Overcast
5:53 AM 30.9 °F 23.5 °F 23.0 °F 72% 29.86 in 7.0 mi SSE 8.1 mph - 0.00 in   Overcast
6:53 AM 32.0 °F 23.6 °F 21.9 °F 66% 29.88 in 10.0 mi South 10.4 mph - N/A   Overcast
7:53 AM 32.0 °F 23.6 °F 24.1 °F 73% 29.92 in 5.0 mi South 10.4 mph 18.4 mph 0.00 in Snow Light Snow
8:01 AM 32.0 °F 23.0 °F 24.1 °F 73% 29.93 in 4.0 mi South 11.5 mph - 0.00 in Snow Light Snow
8:04 AM 32.0 °F 24.2 °F 25.0 °F 75% 29.93 in 5.0 mi SSW 9.2 mph - 0.00 in   Haze
8:24 AM 33.1 °F 23.9 °F 24.1 °F 70% 29.93 in 2.5 mi South 12.7 mph - 0.00 in Snow Light Snow
8:36 AM 33.1 °F 23.4 °F 25.0 °F 72% 29.93 in 5.0 mi South 13.8 mph - 0.00 in Snow Light Snow
8:53 AM 33.1 °F 23.4 °F 25.0 °F 72% 29.93 in 8.0 mi SSW 13.8 mph - 0.00 in   Overcast
9:40 AM 34.0 °F 26.0 °F 24.1 °F 67% 29.96 in 10.0 mi South 10.4 mph 20.7 mph 0.01 in   Overcast
9:53 AM 35.1 °F 26.4 °F 24.1 °F 64% 29.94 in 7.0 mi South 12.7 mph 23.0 mph 0.01 in Snow Light Snow
10:53 AM 37.9 °F 28.9 °F 26.1 °F 62% 29.94 in 9.0 mi SSW 16.1 mph - 0.00 in   Overcast
11:28 AM 37.9 °F 27.9 °F 25.0 °F 60% 29.98 in 10.0 mi South 19.6 mph 25.3 mph N/A   Overcast
11:53 AM 39.9 °F 31.8 °F 24.1 °F 53% 29.96 in 10.0 mi SSW 15.0 mph 28.8 mph N/A   Overcast
12:00 PM 39.9 °F 30.8 °F 24.1 °F 53% 29.99 in 10.0 mi South 18.4 mph 27.6 mph N/A   Overcast
12:53 PM 39.0 °F 29.6 °F 23.0 °F 53% 29.97 in 10.0 mi South 18.4 mph - N/A   Overcast
1:53 PM 39.0 °F 32.8 °F 24.1 °F 55% 29.97 in 10.0 mi SW 9.2 mph 17.3 mph N/A   Overcast
2:53 PM 39.0 °F 34.0 °F 25.0 °F 57% 29.96 in 10.0 mi SW 6.9 mph - N/A   Scattered Clouds
3:53 PM 42.1 °F 37.7 °F 23.0 °F 47% 29.97 in 10.0 mi Variable 6.9 mph 19.6 mph N/A   Clear
4:53 PM 41.0 °F 32.8 °F 24.1 °F 51% 29.97 in 10.0 mi South 16.1 mph 20.7 mph N/A   Clear
5:48 PM 39.2 °F 32.0 °F 26.6 °F 61% 30.00 in 10.0 mi South 11.5 mph - N/A   Mostly Cloudy
5:53 PM 39.0 °F 32.3 °F 27.0 °F 62% 29.99 in 10.0 mi South 10.4 mph - N/A   Mostly Cloudy
6:22 PM 37.9 °F 30.9 °F 26.1 °F 62% 30.02 in 10.0 mi South 10.4 mph - N/A   Mostly Cloudy
6:53 PM 37.0 °F - 26.1 °F 65% 30.01 in - North - - N/A   Unknown
7:53 PM - - - N/A% 30.05 in - North - - N/A   Unknown
8:53 PM - - - N/A% 30.07 in - North - - N/A   Unknown
9:53 PM - - - N/A% 30.07 in - North - - N/A   Unknown
10:53 PM - - - N/A% 30.10 in - North - - N/A   Unknown
11:53 PM - - - N/A% 30.11 in - North - - N/A   Unknown